TimePST,TemperatureF,Dew PointF,Humidity,Sea Level PressureIn,VisibilityMPH,Wind Direction,Wind SpeedMPH,Gust SpeedMPH,PrecipitationIn,Events,Conditions,WindDirDegrees,DateUTC
12:51 AM,45.0,30.9,58,30.36,10.0,NNE,3.5,-,N/A,,Clear,20,2013-01-16 08:51:00
1:51 AM,44.1,30.0,58,30.37,10.0,Calm,Calm,-,N/A,,Clear,0,2013-01-16 09:51:00
2:51 AM,44.1,32.0,63,30.36,10.0,Calm,Calm,-,N/A,,Clear,0,2013-01-16 10:51:00
3:51 AM,42.1,30.0,62,30.36,10.0,NW,3.5,-,N/A,,Clear,310,2013-01-16 11:51:00
4:51 AM,45.0,28.0,52,30.35,10.0,Calm,Calm,-,N/A,,Clear,0,2013-01-16 12:51:00
5:51 AM,42.1,28.0,58,30.35,10.0,Calm,Calm,-,N/A,,Clear,0,2013-01-16 13:51:00
6:51 AM,45.0,28.9,53,30.35,10.0,ENE,3.5,-,N/A,,Partly Cloudy,60,2013-01-16 14:51:00
7:51 AM,45.0,28.9,53,30.35,10.0,Calm,Calm,-,N/A,,Partly Cloudy,0,2013-01-16 15:51:00
8:51 AM,51.1,30.0,44,30.36,10.0,Calm,Calm,-,N/A,,Partly Cloudy,0,2013-01-16 16:51:00
9:51 AM,57.0,23.0,27,30.35,10.0,Calm,Calm,-,N/A,,Partly Cloudy,0,2013-01-16 17:51:00
10:51 AM,57.9,19.0,22,30.31,10.0,South,3.5,-,N/A,,Partly Cloudy,170,2013-01-16 18:51:00
11:51 AM,62.1,21.9,21,30.26,10.0,Calm,Calm,-,N/A,,Partly Cloudy,0,2013-01-16 19:51:00
12:51 PM,63.0,28.9,28,30.22,10.0,NW,5.8,-,N/A,,Partly Cloudy,320,2013-01-16 20:51:00
1:51 PM,63.0,30.9,30,30.20,10.0,NW,4.6,-,N/A,,Partly Cloudy,320,2013-01-16 21:51:00
2:51 PM,60.1,37.0,42,30.19,10.0,WNW,9.2,-,N/A,,Clear,300,2013-01-16 22:51:00
3:51 PM,60.1,43.0,53,30.17,10.0,WNW,8.1,-,N/A,,Clear,300,2013-01-16 23:51:00
4:51 PM,57.9,43.0,58,30.18,10.0,NNW,5.8,-,N/A,,Clear,330,2013-01-17 00:51:00
5:51 PM,57.9,36.0,44,30.17,10.0,North,6.9,-,N/A,,Clear,360,2013-01-17 01:51:00
6:51 PM,57.9,28.0,32,30.18,10.0,Calm,Calm,-,N/A,,Clear,0,2013-01-17 02:51:00
7:51 PM,57.9,26.1,30,30.17,10.0,Calm,Calm,-,N/A,,Clear,0,2013-01-17 03:51:00
8:51 PM,55.0,41.0,59,30.16,10.0,South,4.6,-,N/A,,Clear,170,2013-01-17 04:51:00
9:51 PM,52.0,30.9,45,30.15,10.0,Calm,Calm,-,N/A,,Clear,0,2013-01-17 05:51:00
10:51 PM,51.1,33.1,50,30.14,10.0,Calm,Calm,-,N/A,,Clear,0,2013-01-17 06:51:00
11:51 PM,51.1,34.0,52,30.13,10.0,Calm,Calm,-,N/A,,Clear,0,2013-01-17 07:51:00